格洛纳斯K-17L COSMOS 2559 [GLONASS-K]

导读

COSMOS 2559是独联体(CIS)发射的一颗GLONASS(格洛纳斯)系统导航卫星,于2022年10月10日发射入轨。作为俄罗斯全球卫星导航系统的组成部分,它运行在中高轨道,主要承担全球全天候导航定位任务,可提供位置与时间信息,助力完善GLONASS星座组网,提升系统服务稳定性与覆盖能力,服务军民两用导航需求。

基本信息
目录编号:
54031
目录名称:
COSMOS 2559 (GLONASS)
国际标识:
2022-130A
轨道中心:
EARTH
卫星名称:
格洛纳斯K-17L
卫星全名:
格洛纳斯K-17L COSMOS 2559 [GLONASS-K]
卫星状态:
在轨 (已飞行1436 天)
发射日期:
2022-10-10 UTC
国别 :
俄罗斯(独联体) (CIS)
星等 :
--
该卫星已列入 空间交会检测服务 Space Conjunction Data Service (SCDS) ,当前飞行风险评估等级: 无高风险
轨道信息
数据来源 国际轨道数据 AOE轨道数据
星历时间 2026-09-15T19:54:13+0800
11小时前
查看轨道信息
2026-09-13T01:00:00+0800
3天前
查看轨道信息
半长轴 25508.049km 25508.041km
偏心率 0.0013481 0.0013482
轨道倾角 64.213° 64.215°
近地点辐角 188.531° 188.257°
升交点赤经 311.380° 311.478°
平近点角 171.516° 193.207°
近地点 19095.524km 19095.514km
远地点 19164.3km 19164.294km
周期 675.734分钟 675.733分钟
每日圈数 2.131017 2.131018
详细信息
平衡模式:
三轴稳定
覆盖范围:
全球
运营商:
列舍特涅夫卫星信息系统
运营商所在国:
俄罗斯
制造商(研发单位):
列舍特涅夫卫星信息系统
制造商所在国:
俄罗斯
使用方式:
暂无
卫星简介
格洛纳斯(GLONASS )是苏联/俄罗斯研制卫星导航系统。标准配置为24颗卫星,其中18颗卫星就能保证该系统为俄罗斯境内用户提供全部服务。该卫星仍在工作。
2D轨道图
3D轨道图
轨道高度分析图
轨道倾角分析图
轨道综合分析图
查看轨道综合分析图
与全量物体交会距离演化趋势 订阅飞行安全评估服务
与全量物体交会风险概率演化趋势 订阅飞行安全评估服务